This demonstration page uses our WeatherBlox Daily Observations layout. Learn more.

41.55636, -103.73856

Hourly Observations for October 11, 2016

Temp ( °F °C ) Dew Point ( °F °C ) Humidity (%) Winds ( mph kmh ) Pressure ( in mb ) Visibility ( mi km ) Precip ( " mm )
12:53 am 00:53 Clear 56 13.3 37 2.8 49 49 NE 16 26 29.85 1011 10 16.0934 0 0
1:53 am 01:53 Clear 51 10.6 40 4.4 66 66 Calm 29.91 1013 10 16.0934 0 0
2:53 am 02:53 Clear 48 8.9 40 4.4 74 74 NE 10 17 29.93 1013 10 16.0934 0 0
3:53 am 03:53 Clear 45 7.2 39 3.9 80 80 NNE 6 9 29.94 1014 10 16.0934 0 0
4:53 am 04:53 Clear 43 6.1 37 2.8 80 80 N 6 9 29.97 1015 10 16.0934 0 0
5:53 am 05:53 Mostly Clear 42 5.6 36 2.2 79 79 NNE 8 13 29.99 1016 10 16.0934 0 0
6:53 am 06:53 Clear 42 5.6 36 2.2 79 79 NE 3 6 30 1016 10 16.0934 0 0
7:53 am 07:53 Mostly Cloudy 43 6.1 37 2.8 80 80 VRB 3 6 30.01 1016 10 16.0934 0 0
8:16 am 08:16 Mostly Cloudy 43 6 37 3 81 81 Calm 30.09 1019 9 14.48406 0 0
8:53 am 08:53 Cloudy 44 6.7 37 2.8 76 76 Calm 30.03 1017 10 16.0934 0 0
9:51 am 09:51 Mostly Sunny 46 8 36 2 66 66 E 9 15 30.06 1018 10 16.0934 0 0
9:53 am 09:53 Mostly Sunny 46 7.8 37 2.8 71 71 ESE 12 19 30.02 1017 10 16.0934 0 0
10:53 am 10:53 Sunny 47 8.3 38 3.3 71 71 ESE 8 13 30 1016 10 16.0934 0 0
11:53 am 11:53 Sunny 52 11.1 39 3.9 61 61 VRB 5 7 29.96 1015 10 16.0934 0 0
12:53 pm 12:53 Sunny 57 13.9 40 4.4 53 53 ESE 9 15 29.9 1012 10 16.0934 0 0
1:53 pm 13:53 Sunny 63 17.2 41 5 45 45 ESE 9 15 29.85 1011 10 16.0934 0 0
2:53 pm 14:53 Mostly Sunny 62 16.7 42 5.6 48 48 ENE 12 19 29.88 1012 10 16.0934 0 0
3:53 pm 15:53 Mostly Sunny 58 14.4 38 3.3 48 48 NE 17 28 29.92 1013 10 16.0934 0 0
4:18 pm 16:18 Cloudy 57 14 37 3 48 48 N 22 35 29.91 1013 10 16.0934 0 0
4:53 pm 16:53 Cloudy with Light Rain 49 9.4 39 3.9 69 69 NNE 18 30 30.04 1017 10 16.0934 0 0.0254
5:16 pm 17:16 Cloudy with Light Rain 46 8 43 6 87 87 E 21 33 29.97 1015 10 16.0934 0 0
5:53 pm 17:53 Cloudy 46 7.8 42 5.6 86 86 NNE 21 33 30.04 1017 10 16.0934 0.03 0.762
6:53 pm 18:53 Clear 40 4.4 37 2.8 89 89 N 22 35 30.13 1020 10 16.0934 0 0.0254
7:53 pm 19:53 Mostly Cloudy 38 3.3 33 0.6 83 83 NNE 14 22 30.16 1022 10 16.0934 0 0
8:28 pm 20:28 Cloudy 37 3 34 1 87 87 NNE 10 17 30.24 1024 10 16.0934 0 0
8:53 pm 20:53 Cloudy 38 3.3 33 0.6 83 83 N 9 15 30.22 1023 10 16.0934 0 0
9:53 pm 21:53 Cloudy 37 2.8 32 0 82 82 N 10 17 30.24 1024 10 16.0934 0 0
10:53 pm 22:53 Cloudy 36 2.2 31 -0.6 82 82 N 9 15 30.29 1026 10 16.0934 0 0
11:53 pm 23:53 Cloudy with Mist and Fog 35 1.7 32 0 89 89 N 8 13 30.28 1026 5 8.0467 0 0

Powered by AerisWeather